Preview of NWS' New Version of Forecast
This preview is not operational and should not be used for support decisions.
Latest weather observations around

York, York Airport (KTHV)

Using English Units (Switch to International System of Units)
Date/ Time (EDT) Wind (mph) Vis. (mi) Weather Sky Cond. Temp (°F) Rel. Humidity Wind Chill (°F) Heat Index (°F) Pressure Precip. (in)
Air Dwpt 6 hour Altimeter (inHg) Sea level (inHg) 1 hr 3 hr 6 hr
Max Min
Sep 23 12:53 SW 8 10 Clear CLR 89 57     34%   88 29.89 29.88      
Sep 23 11:53 6 10 Clear CLR 86 58     39%   85 29.91 29.9      
Sep 23 10:53 SW 11 10 Clear CLR 84 59     43%   84 29.93 29.92      
Sep 23 09:53 SW 6 10 Clear CLR 81 62     53%   82 29.95 29.94      
Sep 23 08:53 Calm 10 Clear CLR 74 64     71%   74 29.96 29.95      
Sep 23 07:53 Calm 8 Clear CLR 65 61     87%     29.96 29.95      
Sep 23 06:53 Calm 8 Clear CLR 62 59     90%     29.95 29.95      
Sep 23 05:53 Calm 10 Clear CLR 64 61     90%     29.94 29.93      
Sep 23 04:53 Calm 10 Clear CLR 65 61     87%     29.94 29.94      
Sep 23 03:53 Calm 10 Clear CLR 71 63     76%   71 29.96 29.95      
Sep 23 02:53 Calm 10 Clear CLR 67 62     84%     29.96 29.96      
Sep 23 01:53 Calm 10 Clear CLR 66 62     87%     29.98 29.97      
Sep 23 00:53 Calm 10 Clear CLR 67 62     84%     29.99 29.99      
Sep 22 23:53 Calm 10 Clear CLR 74 65     74%   74 30.01 30      
Sep 22 22:53 S 6 10 Clear CLR 75 65     71%   76 30.02 30.01      
Sep 22 21:53 7 10 Clear CLR 77 65     66%   78 30.03 30.02      
Sep 22 20:53 SSE 5 10 Clear   77 64     64%   77 30.04 30.03      
Sep 22 19:53 Calm 10 Clear CLR 80 65     60%   82 30.04 30.03      
Sep 22 18:53 SSE 7 10 Clear CLR 83 64     53%   84 30.03 30.03      
Sep 22 17:53   10 Clear CLR 86 64     48%   87 30.04 30.03      
Sep 22 16:53 S 8 10 Clear CLR 87 64     46%   88 30.04 30.04      
Sep 22 15:53 5 10 Mostly Clear FEW050 88 65     47%   90 30.05 30.05      
Sep 22 14:53 6 10 Partly Cloudy SCT060 88 64     45%   89 30.07 30.06      
Sep 22 13:53 6 10 Clear CLR 88 64     45%   89 30.09 30.09      
Sep 22 12:53 Calm 10 Clear CLR 84 64     51%   85 30.13 30.12      
Sep 22 11:53 5 10 Clear CLR 82 63     53%   83 30.16 30.15      
Sep 22 10:53 Calm 10 Clear CLR 79 62     56%   79 30.17 30.16      
Sep 22 09:53 ESE 3 10 Clear CLR 74 61     64%   74 30.18 30.17      
Sep 22 08:53 Calm 10 Clear CLR 68 59     73%     30.19 30.19      
Sep 22 07:53 Calm 9 Clear CLR 61 57     87%     30.18 30.18      
Sep 22 06:53 Calm 6 Fog/Mist CLR 57 54     89%     30.16 30.16      
Sep 22 05:53 Calm 7 Clear CLR 57 54     89%     30.16 30.16      
Sep 22 04:53 Calm 10 Clear CLR 58 54     87%     30.16 30.16      
Sep 22 03:53 Calm 10 Clear CLR 59 55     87%     30.16 30.16      
Sep 22 02:53 Calm 10 Clear CLR 60 55     83%     30.17 30.17      
Sep 22 01:53 Calm 10 Clear CLR 61 56     83%     30.19 30.18      
Notice The following observation data may not be complete
Sep 22 00:53 Calm 10 Clear CLR   56      %     30.19 30.19      
Sep 21 23:53 Calm 10 Mostly Clear FEW065 63 57     81%     30.21 30.2      
Sep 21 22:53 Calm 10 Partly Cloudy SCT065 70 58     66%     30.2 30.19      
Sep 21 21:53 Calm 10 Clear CLR 73 58     59%   73 30.2 30.19      
Sep 21 20:53 Calm 10 Clear CLR 75 58     55%   75 30.18 30.18      
Sep 21 19:53 SSE 5 10 Clear CLR 70 58     66%     30.17 30.18      
Sep 21 18:53 Calm 10 Clear CLR 78 58     50%   78 30.17 30.17      
Sep 21 17:53 E 6 10 Mostly Clear FEW070 84 57     40%   83 30.16 30.16      
Sep 21 16:53 NNE 6 10 Partly Cloudy SCT070 86 58     39%   85 30.16 30.16      
Sep 21 15:53 N 10 10 Clear CLR 87 57     36%   86 30.16 30.16      
Sep 21 14:53 N 8 10 Clear CLR 87 56     35%   86 30.18 30.17      
Sep 21 13:53 NNW 8 10 Clear CLR 86 56     36%   85 30.2 30.2      
Sep 21 12:53 6 10 Clear CLR 84 56     38%   83 30.21 30.22      
Sep 21 11:53 Calm 10 Clear CLR 82 55     40%   81 30.23 30.23      
Sep 21 10:53 Calm 10 Clear CLR 74 54     50%   73 30.25 30.25      
Sep 21 09:53 Calm 10 Clear CLR 69 54     59%     30.27 30.27      
Sep 21 08:53 Calm 10 Clear CLR 61 53     75%     30.26 30.27      
Sep 21 07:53 Calm 10 Clear CLR 51 48     89%     30.25 30.26      
Sep 21 06:53 Calm 10 Clear CLR 46        %     30.25 30.25      
Sep 21 05:53 Calm 10 Clear CLR 46 43     89%     30.24 30.24      
Sep 21 04:53 Calm 10 Clear CLR 47 44     90%     30.23 30.23      
Sep 21 03:53 Calm 10 Clear CLR 48 45     89%     30.23 30.23      
Sep 21 02:53 Calm 10 Clear CLR 48 45     89%     30.24 30.24      
Notice The following observation data may not be complete
Sep 21 01:53 Calm 10 Clear CLR   45      %     30.24 30.25      
Notice The following observation data may not be complete
Sep 21 00:53 Calm 10 Clear CLR   46      %     30.24 30.24      
Notice The following observation data may not be complete
Sep 20 23:53 Calm 10 Clear CLR   47      %     30.23 30.24      
Notice The following observation data may not be complete
Sep 20 22:53 Calm 10 Clear CLR   47      %     30.23 30.23      
Sep 20 21:53 Calm 10 Clear CLR 59 49     69%     30.23 30.23      
Sep 20 20:53 Calm 10 Clear CLR 58 49     72%     30.22 30.23      
Notice The following observation data may not be complete
Sep 20 19:53 Calm 10 Clear     50      %     30.21 30.22      
Sep 20 18:53 SSW 3 10 Clear CLR 70 49     47%     30.2 30.21      
Sep 20 17:53 Calm 10 Clear   76 47     36%   75 30.2 30.2      
Sep 20 16:53 6 10 Clear CLR 77 47     35%   76 30.19 30.2      
Sep 20 15:53 5 10 Clear CLR 77 46     33%   76 30.2 30.2      
Sep 20 14:53 6 10 Clear CLR 76 47     36%   75 30.22 30.22      
Sep 20 13:53 5 10 Clear CLR 74 48     40%   73 30.24 30.24      
Sep 20 12:53 W 6 10 Clear CLR 73 46     38%   72 30.26 30.27      
Sep 20 11:53 SW 7 10 Clear CLR 71 48     44%   70 30.28 30.28      
May 14 20:53 SSW 5 9 Clear CLR 72 68     87%   73 29.9 29.9      
May 14 15:53 5 10 Clear CLR 77 68     74%   78 29.97 29.97      
May 14 11:27 Calm 8 Cloudy OVC006 63 61     93%     30.03        
May 14 06:20 ESE 5 0.75 Fog/Mist OVC003 57 57     100%     30        
May 14 02:39 Calm 10 Cloudy OVC007 57 56     96%     29.99        
May 13 22:03 E 5 4 Light Rain and Fog/Mist FEW003 SCT009 OVC019 57 57     100%     30.06   0    
May 13 12:09 ENE 9 7 Light Rain OVC004 56 56     100%     30.11   0    
May 13 07:53 ENE 7 1 Fog/Mist OVC003 58 58     100%     30.11 30.11     0
May 13 03:23 ENE 6 3 Fog/Mist OVC008 61 60     97%     30.06        
May 13 00:20 E 7 3 Fog/Mist BKN009 61 60     97%     30.07        
May 12 19:10 N 10 0.75 Thunderstorms and Heavy Rain and Fog/Mist FEW007 BKN016 OVC043 62 62     100%     30.03   0    
May 12 14:53 ENE 6 7 Clear CLR 75 62     64%   75 29.98 29.98      
May 12 08:53 Calm 6 Fog/Mist OVC007 55 53     93%     30.11 30.11      
May 11 22:53 Calm 10 Mostly Cloudy SCT065 BKN085 61 53     75%     30.09 30.09      
Jun 11 23:53 Calm 10 Clear CLR 68 64     87%     30.07 30.06      
Jun 10 18:53 SW 8 10 Clear CLR 84 60     44%   84 29.99 29.98      
Jun 10 13:53 WSW 10 10 Mostly Clear FEW085 85 59     42%   85 30.02 30.01     0
Jun 09 10:53 NW 10 10 Clear CLR 75 55     50%   75 29.84 29.84      
Jun 09 00:53 Calm 10 Clear   55 52     89%     29.82 29.82      
Jun 08 14:53 E 5 10 Mostly Clear FEW065 73 47     39%   72 29.92 29.93      
Jun 08 05:53 Calm 5 Fog/Mist CLR 45 45     100%     30.03 30.03      
Jun 08 01:53 Calm 10 Mostly Clear FEW060 49 49     100%     30.05 30.05      
Jun 06 03:53 W 3 4 Fog/Mist FEW047 63 63     100%     29.67 29.67      
Jun 05 18:53 Calm 10 Clear CLR 71 65     81%   72 29.69 29.69